Regional Weather Roundup
Issued by NWS

Home | Current Version | Previous Version | Text Only | Print | Product List | Glossary Off
Versions: 1 2 3 4 5 6 7 8 9 10 11 12 13 14 15 16 17 18 19 20 21 22 23 24 25 26 27 28 29 30 31 32 33 34 35 36 37 38 39 40 41 42 43 44 45 46 47 48 49 50

000
ASUS43 KOAX 210902
RWRNE

WEATHER ROUNDUP FOR NEBRASKA
NATIONAL WEATHER SERVICE OMAHA NE
300 AM CST FRI NOV 21 2014

NOTES: SATELLITE DATA IS BEING USED TO AUGMENT CLOUD COVER ABOVE
       12000 FEET.
       "FAIR" INDICATES FEW OR NO CLOUDS BELOW 12,000 FEET WITH NO
       SIGNIFICANT WEATHER AND/OR OBSTRUCTIONS TO VISIBILITY.

  * THESE STATIONS DO NOT REPORT WEATHER SUCH AS RAIN...SNOW OR FOG.

NEZ001>004-019>022-054>056-211000-
NEBRASKA PANHANDLE

CITY           SKY/WX    TMP DP  RH WIND       PRES   REMARKS
SCOTTSBLUFF    PTCLDY    28  19  69 NE3       29.93S
ALLIANCE       PTCLDY    28  19  69 S7        29.91F WCI  21
CHADRON        MOCLDY    22  18  85 W6        29.89S WCI  14
KIMBALL        CLOUDY    33  19  57 NW3       29.93S
SIDNEY         CLOUDY    35  20  54 SW10      29.95S WCI  27
$$

NEZ057>060-069>072-079>082-211000-
SOUTHWEST NEBRASKA

CITY           SKY/WX    TMP DP  RH WIND       PRES   REMARKS
NORTH PLATTE   PTCLDY    18  14  84 CALM      30.04F
IMPERIAL       MOCLDY    28  20  71 SE3       30.01S
LEXINGTON      CLEAR     23  18  83 SE7       30.08S WCI  14
MCCOOK         CLOUDY    21  16  81 E5        30.07S WCI  15
OGALLALA       PTCLDY    21  18  89 CALM      30.00S
$$

NEZ005>010-023>029-035>040-094-211000-
NORTH CENTRAL NEBRASKA

CITY           SKY/WX    TMP DP  RH WIND       PRES   REMARKS
VALENTINE      CLEAR     28  20  71 S13       29.95F WCI  17
AINSWORTH      PTCLDY    25  19  78 S18       29.97S WCI  11
BROKEN BOW     CLEAR     19  15  84 S6        30.06F WCI  11
O`NEILL        CLEAR     23  19  87 S13       30.06S WCI  11
ORD            PTCLDY    16  14  92 SE3       30.10S
THEDFORD       CLEAR     26  21  82 S6        29.99F WCI  19
$$

NEZ041-046>049-061>064-073>077-083>087-211000-
SOUTH CENTRAL NEBRASKA

CITY           SKY/WX    TMP DP  RH WIND       PRES   REMARKS
GRAND ISLAND   CLEAR     22  16  78 S13       30.15S WCI  10
AURORA         CLEAR     19  16  88 S7        30.15F WCI  10
HASTINGS       CLEAR     20  16  84 S9        30.13F WCI   9
HEBRON         CLEAR     21  16  81 SE5       30.18F WCI  15
HOLDREGE       CLEAR     23  18  78 S7        30.09S WCI  15
KEARNEY *      PTCLDY    19  16  86 SE7       30.13R WCI  10
YORK           PTCLDY    19  16  86 S10       30.17F WCI   8
$$

NEZ011>018-030>034-042>045-211000-
NORTHEAST NEBRASKA

CITY           SKY/WX    TMP DP  RH WIND       PRES   REMARKS
NORFOLK        PTCLDY    18  14  84 SE9       30.15F WCI   7
ALBION         PTCLDY    19  15  84 S7        30.13F WCI  10
BLAIR          MOCLDY    20  15  79 SE8       30.22F WCI  11
COLUMBUS *     PTCLDY    19  12  73 SE7       30.19S WCI  10
FREMONT        PTCLDY    21  16  82 SE8       30.21F WCI  11
TEKAMAH        MOCLDY    15  10  80 SE8       30.25S WCI   4
WAYNE          PTCLDY    17  13  86 S7        30.19S WCI   7
$$

NEZ050>053-065>068-078-088>093-211000-
SOUTHEAST NEBRASKA

CITY           SKY/WX    TMP DP  RH WIND       PRES   REMARKS
LINCOLN        CLEAR     19  14  81 S3        30.24S
OMAHA EPPLEY   MOCLDY    19  14  81 SE10      30.27S WCI   7
BEATRICE       PTCLDY    20  17  85 SE3       30.21S
FALLS CITY     PTCLDY    19  15  84 SE6       30.26S WCI  11
NEBRASKA CITY  CLEAR     18  13  80 CALM      30.24F
PLATTSMOUTH    PTCLDY    20  14  78 SE12      30.24S WCI   8
$$

NEZ044-045-051>053-067-211000-
OMAHA AREA

CITY           SKY/WX    TMP DP  RH WIND       PRES   REMARKS
OMAHA EPPLEY   MOCLDY    19  14  81 SE10      30.27S WCI   7
BLAIR          MOCLDY    20  15  79 SE8       30.22F WCI  11
FREMONT        PTCLDY    21  16  82 SE8       30.21F WCI  11
MILLARD        PTCLDY    19  14  84 SE3       30.24F
OFFUTT AFB     PTCLDY    17  12  79 E8        30.25F WCI   7
PLATTSMOUTH    PTCLDY    20  14  78 SE12      30.24S WCI   8
WAHOO          FAIR      13  10  87 SE6       30.22F WCI   4
$$



USA.gov is the U.S. government's official web portal to all federal, state and local government web resources and services.